This demonstration page uses our WeatherBlox Daily Observations layout. Learn more.

Left ArrowRight Arrow

36.17497, -115.13722

Hourly Observations for April 7, 2020

Temp ( °F °C ) Dew Point ( °F °C ) Humidity (%) Winds ( mph kmh ) Pressure ( in mb ) Visibility ( mi km ) Precip ( " mm )
12:53 am 00:53 Cloudy 55 12.8 43 6.1 64 64 NW 14 22 30.01 1016 10 16 N/A
1:53 am 01:53 Cloudy 55 12.8 42 5.6 62 62 NNW 14 22 30.00 1016 10 16 N/A
2:53 am 02:53 Mostly Cloudy 54 12.2 43 6.1 67 67 NNW 10 17 29.99 1016 10 16 N/A
3:53 am 03:53 Cloudy 54 12.2 43 6.1 67 67 NNW 9 15 29.99 1016 10 16 0.00 0.00
4:53 am 04:53 Cloudy 54 12.2 43 6.1 67 67 NW 8 13 30.00 1016 10 16 N/A
5:53 am 05:53 Cloudy 54 12.2 43 6.1 67 67 NW 9 15 30.02 1017 10 16 N/A
6:53 am 06:53 Cloudy 53 11.7 42 5.6 66 66 NW 12 19 30.05 1018 10 16 N/A
7:53 am 07:53 Mostly Sunny 54 12.2 40 4.4 59 59 NW 20 31 30.07 1018 10 16 N/A
8:53 am 08:53 Sunny 58 14.4 41 5 53 53 NNW 14 22 30.08 1019 10 16 N/A
9:53 am 09:53 Partly Cloudy 59 15 41 5 51 51 NNW 13 20 30.10 1019 10 16 N/A
10:53 am 10:53 Sunny 61 16.1 41 5 48 48 N 13 20 30.10 1019 10 16 N/A
11:53 am 11:53 Mostly Sunny 62 16.7 41 5 46 46 NW 15 24 30.09 1019 10 16 N/A
12:53 pm 12:53 Cloudy with Light Rain 59 15 45 7.2 60 60 NW 18 30 30.09 1019 10 16 0.00 0.00
1:53 pm 13:53 Cloudy with Light Rain 56 13.3 46 7.8 70 70 NW 15 24 30.09 1019 10 16 0.00 0.00
2:53 pm 14:53 Mostly Cloudy 59 15 45 7.2 60 60 NW 21 33 30.05 1018 10 16 0.00 0.00
3:53 pm 15:53 Mostly Sunny 61 16.1 42 5.6 50 50 NW 25 41 30.02 1017 10 16 N/A
4:53 pm 16:53 Sunny 63 17.2 43 6.1 48 48 NW 17 28 29.99 1016 10 16 N/A
5:53 pm 17:53 Sunny 63 17.2 43 6.1 48 48 NW 17 28 29.98 1015 10 16 N/A
6:53 pm 18:53 Sunny 62 16.7 42 5.6 48 48 NW 13 20 29.98 1015 10 16 N/A
7:53 pm 19:53 Clear 60 15.6 42 5.6 52 52 NW 9 15 29.98 1015 10 16 N/A
8:53 pm 20:53 Clear 60 15.6 42 5.6 52 52 NW 10 17 29.98 1015 10 16 N/A
9:53 pm 21:53 Clear 59 15 42 5.6 54 54 NNW 8 13 29.99 1016 10 16 N/A
10:53 pm 22:53 Clear 56 13.3 42 5.6 60 60 WNW 3 6 29.99 1016 10 16 N/A
11:53 pm 23:53 Clear 55 12.8 42 5.6 62 62 NNW 5 7 29.98 1015 10 16 N/A

Powered by AerisWeather